CW7268 Weather Reports


time (UTC)temp
C
wind
direction
speed
KPH
gust
KPH
rain 1hr
cm
rain 24hr
cm
rain mn
cm
humidity
%
barometer
mb
20260504014549 14 200 1.6 6.4 0.00 0.00 0.00 65 1010.2
20260504013047 15 196 3.2 6.4 0.00 0.00 0.00 65 1010.0
20260504011543 15 195 1.6 8.0 0.00 0.00 0.00 63 1010.0
20260504010051 16 198 3.2 8.0 0.00 0.00 0.00 62 1010.0
20260504004557 16 209 3.2 8.0 0.00 0.00 0.00 60 1009.9
20260504003041 17 211 4.8 12.9 0.00 0.00 0.00 58 1009.8
20260504001540 17 219 4.8 12.9 0.00 0.00 0.00 57 1009.7
20260504000038 17 196 6.4 14.5 0.00 0.00 0.00 56 1009.8
20260503234542 18 207 9.7 24.1 0.00 0.00 0.00 54 1009.9
20260503233037 18 211 8.0 19.3 0.00 0.00 0.00 54 1010.1
20260503231535 18 211 11.3 24.1 0.00 0.00 0.00 52 1010.2
20260503230038 18 199 11.3 22.5 0.00 0.00 0.00 53 1010.5
20260503224532 18 211 8.0 16.1 0.00 0.00 0.00 54 1010.7
20260503223031 18 208 11.3 22.5 0.00 0.00 0.00 54 1010.8
20260503221534 17 227 9.7 22.5 0.00 0.00 0.00 54 1010.9
20260503220029 17 205 8.0 24.1 0.00 0.00 0.00 54 1011.0
20260503214528 18 205 12.9 30.6 0.00 0.00 0.00 53 1010.9
20260503213027 17 213 19.3 43.5 0.00 0.00 0.00 54 1010.9
20260503211524 17 205 16.1 35.4 0.00 0.00 0.00 53 1011.4
20260503210026 17 221 11.3 25.7 0.00 0.00 0.00 52 1011.6
20260503204531 18 186 17.7 37.0 0.00 0.00 0.00 49 1011.7
20260503203023 17 168 17.7 45.1 0.00 0.00 0.00 51 1011.5
20260503201518 18 191 20.9 41.8 0.00 0.00 0.00 49 1012.0
20260503200015 18 194 22.5 40.2 0.00 0.00 0.00 49 1012.6
20260503194514 17 194 22.5 40.2 0.00 0.00 0.00 51 1013.0
20260503193011 17 205 16.1 45.1 0.00 0.00 0.00 50 1013.5
20260503191505 16 212 14.5 30.6 0.00 0.00 0.00 50 1013.8
20260503190002 16 196 14.5 30.6 0.00 0.00 0.00 51 1014.6
20260503184601 16 204 12.9 24.1 0.00 0.00 0.00 51 1014.8
20260503183114 16 215 14.5 29.0 0.00 0.00 0.00 50 1015.4
20260503181559 16 202 14.5 25.7 0.00 0.00 0.00 49 1015.4
20260503180056 17 231 12.9 24.1 0.00 0.00 0.00 48 1015.2
20260503174554 16 197 11.3 32.2 0.00 0.00 0.00 51 1015.5
20260503173115 16 175 11.3 25.7 0.00 0.00 0.00 52 1015.7
20260503171550 16 189 16.1 32.2 0.00 0.00 0.00 52 1016.2
20260503090131 2 288 0.0 0.0 0.00 0.00 0.00 81 1019.1
20260503081525 2 288 0.0 0.0 0.00 0.00 0.00 82 1019.2
20260503071519 3 288 0.0 0.0 0.00 0.00 0.00 78 1019.4
20260503054511 3 288 0.0 0.0 0.00 0.00 0.00 81 1019.9
20260503053010 3 288 0.0 0.0 0.00 0.00 0.00 81 1019.8
20260503051506 3 288 0.0 0.0 0.00 0.00 0.00 81 1020.0
20260503050004 4 288 0.0 0.0 0.00 0.00 0.00 81 1020.0
20260503044503 4 288 0.0 0.0 0.00 0.00 0.00 81 1019.9
20260503043007 4 288 0.0 0.0 0.00 0.00 0.00 81 1019.8
20260503041502 4 288 0.0 0.0 0.00 0.00 0.00 80 1019.9
20260503040002 5 288 0.0 0.0 0.00 0.00 0.00 78 1019.9
20260503034503 5 288 0.0 0.0 0.00 0.00 0.00 77 1019.9
20260503033103 5 288 0.0 0.0 0.00 0.00 0.00 76 1020.1
20260503033001 5 288 0.0 0.0 0.00 0.00 0.00 75 1020.1
20260503031600 6 288 0.0 0.0 0.00 0.00 0.00 72 1020.1
20260503030059 7 288 0.0 0.0 0.00 0.00 0.00 68 1020.1
20260503024605 7 288 0.0 1.6 0.00 0.00 0.00 68 1020.2
20260503023059 8 288 0.0 0.0 0.00 0.00 0.00 65 1020.0
20260503021556 8 288 0.0 1.6 0.00 0.00 0.00 63 1019.8